Location: site
(53.0000°N, 23.0500°E)
Time: 22:08:47
(UTC+01:00)

SAOCOM 1-A - Pass Details

Date: 24 January 2020
Orbit: 621 x 623 km, 97.9° (Epoch: 24 February)

Event Time Altitude Azimuth Distance (km) Brightness Sun altitude
Rises 06:01:18 0° 209° (SSW) 2,895 ? -12.2°
Reaches altitude 10° 06:04:10 10° 230° (SW) 1,995 ? -11.8°
Maximum altitude 06:07:00 17° 271° (W) 1,591 ? -11.4°
Enters shadow 06:08:00 16° 288° (WNW) 1,648 ? -11.2°
